Location: Unspecified
(0.0000°N, 0.0000°E)
Time: 05:47:52
(UTC+02:00)

GENESIS II - Visible Passes

Search period start: 23 June 2021 00:00
Search period end: 03 July 2021 00:00
Orbit: 510 x 515 km, 64.5° (Epoch: 22 June)

Date Brightness Start Highest point End Pass type
(mag) Time Alt. Az. Time Alt. Az. Time Alt. Az.
24 Jun 6.2 21:58:38 10° SW 22:01:59 28° WNW 22:05:20 10° N visible
25 Jun 6.3 21:41:49 10° SW 21:45:11 28° WNW 21:48:31 10° N visible
26 Jun 6.4 21:25:01 10° SW 21:28:22 28° WNW 21:31:42 10° N visible
27 Jun 6.5 21:08:12 10° SW 21:11:32 28° WNW 21:14:54 10° N visible
28 Jun 6.6 20:51:23 10° SW 20:54:44 28° WNW 20:58:05 10° N visible
29 Jun 6.7 20:34:34 10° SW 20:37:56 28° WNW 20:41:16 10° N visible
